Time,TemperatureF,DewpointF,PressureIn,WindDirection,WindDirectionDegrees,WindSpeedMPH,WindSpeedGustMPH,Humidity,HourlyPrecipIn,Conditions,Clouds,dailyrainin,SolarRadiationWatts/m^2,SoftwareType,DateUTC
2013-05-05 00:00:00,69.3,64.3,29.85,West,259,0.0,0.0,84,0.00,,,0.00,0,Wunderground v.1.15,2013-05-05 10:00:00,
2013-05-05 00:30:00,69.3,64.6,29.84,West,259,0.0,0.0,85,0.00,,,0.00,0,Wunderground v.1.15,2013-05-05 10:30:00,
2013-05-05 01:00:00,69.1,64.7,29.84,West,259,0.0,0.0,86,0.00,,,0.00,0,Wunderground v.1.15,2013-05-05 11:00:00,
2013-05-05 01:30:00,69.1,64.7,29.84,West,260,1.0,3.0,86,0.00,,,0.00,0,Wunderground v.1.15,2013-05-05 11:30:00,
2013-05-05 02:00:00,68.3,64.6,29.83,West,265,2.0,2.0,88,0.55,,,0.05,0,Wunderground v.1.15,2013-05-05 12:00:00,
2013-05-05 02:30:00,66.8,63.1,29.83,NNE,32,2.0,3.0,88,0.06,,,0.15,0,Wunderground v.1.15,2013-05-05 12:30:00,
2013-05-05 03:00:00,66.6,63.3,29.83,NNE,33,3.0,4.0,89,0.05,,,0.17,0,Wunderground v.1.15,2013-05-05 13:00:00,
2013-05-05 03:30:00,66.6,63.6,29.83,NNE,33,1.0,2.0,90,0.15,,,0.22,0,Wunderground v.1.15,2013-05-05 13:30:00,
2013-05-05 04:00:00,66.3,63.3,29.82,NNE,33,2.0,2.0,90,0.00,,,0.24,0,Wunderground v.1.15,2013-05-05 14:00:00,
2013-05-05 04:30:00,66.3,63.6,29.83,NNE,33,2.0,2.0,91,0.00,,,0.24,0,Wunderground v.1.15,2013-05-05 14:30:00,
2013-05-05 05:00:00,66.4,63.7,29.83,NNE,33,0.0,0.0,91,0.00,,,0.24,0,Wunderground v.1.15,2013-05-05 15:00:00,
2013-05-05 05:30:00,66.4,63.7,29.83,NNE,33,1.0,1.0,91,0.00,,,0.25,0,Wunderground v.1.15,2013-05-05 15:30:00,
2013-05-05 06:00:00,66.3,63.3,29.84,NNE,33,0.0,0.0,90,0.00,,,0.25,0,Wunderground v.1.15,2013-05-05 16:00:00,
2013-05-05 06:30:00,66.4,63.4,29.86,NNE,33,0.0,0.0,90,0.00,,,0.25,7,Wunderground v.1.15,2013-05-05 16:30:00,
2013-05-05 07:00:00,66.6,63.3,29.86,NE,34,1.0,2.0,89,0.00,,,0.25,53,Wunderground v.1.15,2013-05-05 17:00:00,
2013-05-05 07:30:00,68.1,64.1,29.86,NE,34,2.0,2.0,87,0.00,,,0.25,121,Wunderground v.1.15,2013-05-05 17:30:00,
2013-05-05 08:00:00,69.6,64.2,29.86,NE,34,1.0,1.0,83,0.00,,,0.25,148,Wunderground v.1.15,2013-05-05 18:00:00,
2013-05-05 08:30:00,71.1,64.3,29.87,NE,34,1.0,1.0,79,0.00,,,0.25,227,Wunderground v.1.15,2013-05-05 18:30:00,
2013-05-05 09:00:00,72.8,63.2,29.86,NE,34,0.0,0.0,72,0.00,,,0.25,313,Wunderground v.1.15,2013-05-05 19:00:00,
2013-05-05 09:30:00,73.3,62.9,29.87,NNE,32,1.0,1.0,70,0.00,,,0.25,306,Wunderground v.1.15,2013-05-05 19:30:00,
2013-05-05 10:00:00,75.6,63.0,29.87,NNE,31,2.0,2.0,65,0.00,,,0.25,788,Wunderground v.1.15,2013-05-05 20:00:00,
2013-05-05 10:30:00,76.0,63.8,29.86,NW,321,3.0,3.0,66,0.00,,,0.25,353,Wunderground v.1.15,2013-05-05 20:30:00,
2013-05-05 11:00:00,76.3,64.5,29.85,WNW,285,3.0,4.0,67,0.00,,,0.25,1106,Wunderground v.1.15,2013-05-05 21:00:00,
2013-05-05 11:30:00,75.4,64.1,29.85,NW,309,4.0,4.0,68,0.00,,,0.25,278,Wunderground v.1.15,2013-05-05 21:30:00,
2013-05-05 12:00:00,76.1,63.5,29.84,NW,308,5.0,5.0,65,0.00,,,0.25,504,Wunderground v.1.15,2013-05-05 22:00:00,
2013-05-05 12:30:00,77.7,64.5,29.82,WNW,287,5.0,5.0,64,0.00,,,0.25,932,Wunderground v.1.15,2013-05-05 22:30:00,
2013-05-05 13:00:00,78.1,64.9,29.81,WNW,291,6.0,10.0,64,0.00,,,0.25,517,Wunderground v.1.15,2013-05-05 23:00:00,
2013-05-05 13:30:00,77.6,64.9,29.80,West,277,4.0,6.0,65,0.00,,,0.25,561,Wunderground v.1.15,2013-05-05 23:30:00,
2013-05-05 14:00:00,75.8,65.3,29.80,WNW,294,7.0,7.0,70,0.00,,,0.25,176,Wunderground v.1.15,2013-05-06 00:00:00,
2013-05-05 14:30:00,76.0,65.5,29.79,NW,310,5.0,5.0,70,0.00,,,0.25,410,Wunderground v.1.15,2013-05-06 00:30:00,
2013-05-05 15:00:00,76.8,66.3,29.79,WNW,298,4.0,4.0,70,0.00,,,0.25,548,Wunderground v.1.15,2013-05-06 01:00:00,
2013-05-05 15:30:00,77.7,65.0,29.78,WNW,300,5.0,5.0,65,0.00,,,0.25,877,Wunderground v.1.15,2013-05-06 01:30:00,
2013-05-05 16:00:00,77.0,63.9,29.78,WNW,298,4.0,4.0,64,0.00,,,0.25,371,Wunderground v.1.15,2013-05-06 02:00:00,
2013-05-05 16:30:00,76.0,62.9,29.78,NW,315,4.0,5.0,64,0.00,,,0.25,95,Wunderground v.1.15,2013-05-06 02:30:00,
2013-05-05 17:00:00,75.6,65.1,29.79,WNW,290,4.0,6.0,70,0.00,,,0.25,100,Wunderground v.1.15,2013-05-06 03:00:00,
2013-05-05 17:30:00,74.7,65.9,29.79,WNW,288,3.0,4.0,74,0.00,,,0.25,102,Wunderground v.1.15,2013-05-06 03:30:00,
2013-05-05 18:00:00,73.9,65.9,29.80,WNW,293,3.0,3.0,76,0.00,,,0.25,30,Wunderground v.1.15,2013-05-06 04:00:00,
2013-05-05 18:30:00,73.3,66.0,29.80,WNW,290,3.0,4.0,78,0.00,,,0.25,7,Wunderground v.1.15,2013-05-06 04:30:00,
2013-05-05 19:00:00,73.0,66.5,29.81,WNW,290,2.0,5.0,80,0.00,,,0.25,0,Wunderground v.1.15,2013-05-06 05:00:00,
2013-05-05 19:30:00,72.7,66.5,29.82,WNW,291,3.0,5.0,81,0.00,,,0.25,0,Wunderground v.1.15,2013-05-06 05:30:00,
2013-05-05 20:00:00,72.5,66.3,29.83,NW,320,3.0,3.0,81,0.00,,,0.25,0,Wunderground v.1.15,2013-05-06 06:00:00,
2013-05-05 20:30:00,72.3,66.5,29.83,WNW,297,4.0,5.0,82,0.00,,,0.25,0,Wunderground v.1.15,2013-05-06 06:30:00,
2013-05-05 21:00:00,72.3,66.5,29.84,NW,315,3.0,5.0,82,0.00,,,0.25,0,Wunderground v.1.15,2013-05-06 07:00:00,
2013-05-05 21:30:00,72.3,66.5,29.84,NNW,330,3.0,3.0,82,0.00,,,0.25,0,Wunderground v.1.15,2013-05-06 07:30:00,
2013-05-05 22:00:00,72.1,66.3,29.84,NNW,330,2.0,2.0,82,0.00,,,0.25,0,Wunderground v.1.15,2013-05-06 08:00:00,
2013-05-05 22:30:00,72.0,66.6,29.83,NNW,330,1.0,1.0,83,0.00,,,0.25,0,Wunderground v.1.15,2013-05-06 08:30:00,
2013-05-05 23:00:00,71.6,66.5,29.83,NNW,330,0.0,0.0,84,0.00,,,0.25,0,Wunderground v.1.15,2013-05-06 09:00:00,
2013-05-05 23:30:00,71.1,66.4,29.83,NNW,330,0.0,0.0,85,0.00,,,0.25,0,Wunderground v.1.15,2013-05-06 09:30:00,